Probability
16 16 16 13 10 10 13 10 6 3 3 6 10 16 16 16 0 0 3 0 0 0 0 0 0 0 0 0 0 0 0 0 0 0 0 0 0 0
23 19 23 10 10 6 16 13 13 6 6 10 6 13 6 3 0 3 10 0 0 0 0 0 0 0 0 0 0 0 0 0 0 0 0 0 0 0
19 16 19 19 13 10 10 13 10 6 6 6 3 10 13 6 0 10 10 3 0 0 0 0 0 0 0 0 0 0 0 0 0 0 0 0 0 0
19 19 19 10 10 16 13 10 10 13 6 6 6 10 13 10 13 13 3 3 3 0 0 0 0 0 0 0 0 0 0 0 0 0 0 0 0 0
19 19 16 13 10 13 13 10 10 3 13 6 6 10 13 10 13 10 6 6 6 3 0 0 0 0 0 0 0 0 0 0 0 0 0 0 0 0
23 13 16 19 16 13 13 10 6 6 10 13 3 6 10 6 6 6 6 10 6 6 3 0 0 0 0 0 0 0 0 0 0 0 0 0 0 0
19 19 13 13 13 10 10 10 10 6 6 6 3 10 6 6 6 6 3 3 3 6 6 3 0 0 0 0 0 0 0 0 0 0 0 0 0 0
23 23 16 10 3 3 3 3 3 6 6 3 3 3 3 3 3 3 3 3 3 3 3 3 3 3 0 0 0 0 0 0 0 0 0 0 0 0
23 26 10 0 6 6 3 3 3 0 0 0 3 3 3 6 3 3 3 3 3 3 3 3 3 3 3 3 0 0 0 0 0 0 0 0 0 0
10 13 13 10 3 6 6 6 6 6 0 0 0 3 3 6 6 3 3 3 6 3 3 3 3 3 3 3 3 0 0 0 0 0 0 0 0 0
16 13 13 13 6 0 0 3 10 10 0 0 0 0 0 0 0 0 0 3 3 3 3 3 3 3 3 3 3 3 0 0 0 0 0 0 0 0
19 16 0 0 0 0 0 3 6 10 3 3 6 6 3 0 0 0 3 0 3 3 3 3 3 3 3 3 3 3 0 0 0 0 0 0 0 0
6 6 3 0 0 0 0 0 0 0 0 0 3 3 6 10 6 3 3 3 3 0 3 6 6 3 3 3 3 3 3 0 0 0 0 0 0 0
3 3 0 0 0 0 0 0 0 0 0 0 3 0 0 6 10 3 3 6 10 3 3 6 6 6 3 0 0 3 3 3 3 0 0 0 0 0
0 0 0 0 0 0 0 0 0 0 0 0 0 0 0 6 6 3 6 6 6 6 3 10 6 0 0 0 0 0 3 6 6 3 3 0 0 0
0 0 0 0 0 0 0 0 0 0 0 0 0 3 0 3 3 3 3 3 6 3 6 3 6 3 3 0 3 3 3 3 6 6 6 3 3 0
0 0 6 10 6 6 6 3 3 0 0 0 3 3 0 0 0 3 3 0 0 0 0 6 3 3 0 3 0 3 0 0 0 3 3 3 0 6
0 0 0 0 0 3 3 3 3 3 3 3 0 0 0 0 0 0 0 0 0 0 0 0 6 3 3 0 0 0 0 3 3 3 3 6 6 3
0 0 0 0 0 0 0 3 3 3 3 0 0 0 0 0 0 0 0 0 0 0 0 0 3 0 0 0 0 0 0 0 3 3 6 6 3 3
0 0 0 0 3 3 3 3 3 6 3 0 0 0 0 0 0 0 0 0 0 0 0 0 3 3 0 0 0 0 0 0 0 3 3 3 0 0
0 0 0 0 0 0 3 3 0 0 0 0 0 0 0 0 0 0 0 0 0 0 0 0 0 0 0 0 0 0 0 0 0 3 3 3 0 0
0 0 0 0 0 0 0 0 0 0 0 0 0 0 0 0 0 0 0 0 0 0 0 0 3 3 0 0 0 0 3 0 0 0 0 0 3 0
0 0 3 3 0 0 0 0 0 0 0 0 0 0 0 0 0 0 0 0 0 0 0 0 0 3 3 0 0 0 0 0 0 0 0 0 0 0
Height
5805 5804 5804 5804 5803 5802 5802 5802 5802 5801 5801 5801 5801 5802 5801 5802 5802 5802 5802 5802 5802 5802 5802 5802 5803 5803 5804 5805 5805 5807 5808 5809 5810 5812 5813 5815 5816 5818
5801 5801 5800 5800 5799 5798 5798 5797 5797 5797 5797 5797 5797 5797 5796 5797 5797 5797 5796 5796 5796 5796 5796 5796 5796 5797 5797 5798 5798 5799 5800 5801 5802 5804 5805 5807 5809 5810
5797 5797 5796 5796 5795 5795 5794 5793 5793 5793 5793 5793 5793 5792 5792 5791 5791 5791 5790 5791 5790 5790 5790 5790 5790 5790 5790 5791 5792 5793 5793 5794 5795 5796 5797 5799 5801 5802
5794 5793 5793 5792 5791 5791 5790 5789 5789 5789 5788 5788 5788 5787 5787 5786 5786 5785 5785 5785 5784 5784 5784 5783 5783 5783 5783 5784 5785 5785 5786 5787 5788 5789 5790 5791 5793 5794
5791 5790 5789 5788 5788 5787 5786 5785 5785 5784 5784 5784 5783 5783 5782 5781 5780 5779 5779 5778 5778 5777 5777 5776 5776 5776 5776 5777 5777 5778 5778 5779 5780 5780 5781 5783 5784 5785
5788 5787 5786 5785 5784 5783 5782 5781 5781 5780 5779 5779 5778 5778 5777 5776 5775 5774 5773 5772 5771 5771 5770 5770 5770 5769 5769 5769 5769 5770 5770 5770 5771 5772 5773 5774 5775 5776
5784 5783 5782 5781 5780 5779 5778 5777 5776 5775 5774 5774 5773 5772 5771 5770 5769 5768 5767 5766 5765 5764 5764 5763 5763 5763 5762 5762 5762 5762 5762 5762 5762 5763 5764 5765 5766 5767
5780 5779 5778 5776 5776 5774 5773 5773 5772 5770 5769 5768 5767 5766 5765 5763 5762 5761 5760 5759 5759 5758 5757 5756 5755 5755 5755 5754 5754 5754 5754 5754 5754 5754 5755 5756 5757 5758
5776 5774 5773 5772 5771 5770 5768 5767 5766 5765 5764 5762 5761 5760 5758 5757 5756 5754 5753 5752 5752 5751 5750 5749 5748 5748 5747 5746 5746 5746 5745 5746 5746 5746 5746 5747 5748 5749
5770 5769 5768 5767 5766 5764 5763 5762 5761 5759 5758 5756 5755 5754 5752 5751 5749 5748 5747 5746 5745 5744 5742 5742 5741 5741 5740 5739 5738 5737 5737 5737 5737 5737 5737 5738 5739 5739
5764 5763 5762 5761 5760 5758 5757 5756 5755 5753 5751 5750 5749 5747 5746 5744 5743 5741 5740 5739 5738 5737 5735 5734 5733 5732 5732 5731 5730 5729 5728 5728 5727 5728 5728 5728 5729 5729
5758 5757 5756 5754 5753 5752 5751 5750 5749 5747 5745 5744 5742 5741 5739 5738 5736 5734 5733 5731 5730 5729 5728 5726 5725 5724 5723 5722 5721 5720 5719 5718 5718 5718 5718 5718 5718 5719
5751 5750 5749 5748 5747 5746 5745 5743 5742 5741 5739 5738 5736 5735 5733 5731 5729 5727 5726 5724 5722 5721 5720 5718 5717 5715 5714 5713 5712 5711 5709 5709 5708 5708 5708 5708 5709 5709
5745 5743 5742 5741 5740 5739 5738 5737 5735 5734 5733 5731 5729 5728 5726 5724 5722 5720 5718 5717 5715 5713 5712 5710 5708 5707 5705 5704 5703 5702 5700 5699 5699 5699 5699 5699 5698 5698
5738 5737 5735 5734 5733 5732 5731 5730 5728 5727 5725 5724 5722 5721 5719 5717 5715 5713 5711 5709 5707 5705 5704 5702 5700 5698 5696 5695 5694 5693 5692 5691 5690 5689 5689 5689 5689 5688
5732 5731 5729 5728 5727 5726 5724 5723 5721 5720 5718 5717 5715 5713 5711 5709 5708 5706 5704 5701 5700 5698 5696 5694 5691 5689 5688 5686 5685 5684 5683 5682 5681 5680 5679 5679 5679 5678
5726 5725 5723 5722 5720 5719 5718 5716 5715 5713 5711 5709 5707 5706 5704 5702 5700 5698 5695 5694 5691 5689 5688 5685 5683 5681 5679 5678 5676 5675 5674 5673 5672 5671 5670 5670 5669 5668
5719 5718 5717 5715 5714 5712 5710 5709 5707 5705 5703 5701 5700 5698 5696 5694 5692 5689 5687 5685 5683 5681 5679 5677 5675 5673 5671 5670 5668 5667 5665 5664 5663 5662 5661 5660 5660 5659
5712 5711 5709 5708 5706 5705 5703 5701 5700 5698 5696 5694 5692 5690 5688 5685 5683 5681 5679 5676 5674 5672 5670 5668 5666 5665 5663 5662 5661 5658 5657 5656 5655 5653 5652 5651 5650 5649
5705 5704 5702 5701 5699 5697 5696 5694 5692 5690 5688 5686 5684 5682 5679 5677 5675 5672 5670 5668 5666 5664 5662 5661 5659 5656 5655 5653 5652 5651 5648 5647 5646 5645 5643 5642 5641 5640
5699 5697 5696 5694 5692 5690 5688 5686 5684 5682 5680 5678 5676 5673 5671 5668 5666 5664 5662 5659 5657 5656 5654 5653 5650 5648 5646 5645 5644 5643 5641 5638 5637 5635 5634 5633 5632 5631
5692 5690 5689 5687 5685 5683 5681 5679 5677 5675 5672 5670 5668 5665 5663 5660 5658 5655 5653 5651 5649 5647 5646 5644 5642 5640 5638 5636 5635 5634 5633 5631 5629 5626 5625 5623 5622 5621
5685 5683 5682 5680 5678 5676 5674 5672 5669 5667 5664 5662 5660 5658 5655 5653 5650 5648 5646 5643 5641 5639 5638 5636 5634 5632 5630 5629 5627 5625 5624 5622 5620 5618 5617 5614 5613 5611
Wind_Speed
17 17 18 18 18 18 18 18 17 17 16 16 16 17 18 18 19 20 21 21 22 23 23 24 25 26 27 27 26 27 27 28 28 29 29 29 28 30
16 17 16 16 16 16 16 16 15 15 16 16 16 16 17 19 19 19 19 21 22 23 23 23 24 25 26 26 26 25 26 27 27 27 28 29 29 30
17 16 16 16 16 16 16 16 17 17 17 17 17 17 18 18 19 20 20 21 22 22 22 23 24 24 25 26 26 26 26 26 27 28 28 29 30 30
16 16 16 16 16 17 16 16 16 17 18 18 18 18 18 20 21 21 21 21 22 22 23 23 24 24 25 26 27 27 27 27 27 28 29 29 30 31
15 16 15 16 16 16 16 16 16 17 18 18 18 19 20 20 21 22 22 22 22 23 23 23 24 25 25 26 27 27 27 28 28 29 30 30 31 32
15 15 16 16 16 16 16 17 18 18 19 18 18 20 21 22 22 23 23 23 23 23 23 23 23 24 25 26 27 28 28 28 28 29 30 31 31 32
16 16 16 16 16 16 16 17 18 18 18 19 20 21 22 23 23 23 23 23 23 24 23 23 24 24 25 26 27 27 28 28 28 29 30 30 31 31
18 17 17 17 17 16 17 17 18 18 19 19 20 21 22 23 24 24 24 24 24 24 24 25 25 25 25 25 26 26 27 28 28 29 30 31 32 32
19 19 19 18 17 17 18 18 19 19 20 21 21 22 23 24 24 24 25 24 24 23 24 24 24 25 26 26 26 27 27 28 30 30 31 31 31 32
21 20 20 20 20 20 20 20 20 20 21 22 22 23 23 24 24 25 25 25 25 24 25 25 25 25 26 27 27 28 29 29 30 30 31 32 32 33
23 22 22 22 22 22 22 22 22 22 22 22 23 23 23 23 23 24 24 24 25 25 26 26 26 27 27 27 28 29 29 30 30 31 32 33 33 34
22 23 22 23 23 23 23 22 22 23 23 23 23 23 23 23 24 24 25 25 26 26 26 26 26 27 28 28 29 29 30 30 30 30 31 32 33 33
23 23 23 23 23 23 23 23 23 23 24 24 24 24 24 24 25 25 26 26 26 26 26 27 27 28 28 28 28 29 30 29 29 30 30 31 32 33
23 23 23 23 23 23 23 23 23 23 24 24 25 25 25 25 25 26 26 26 26 26 26 27 27 27 28 28 28 28 28 28 29 29 29 30 31 31
21 21 22 23 23 24 24 24 24 24 24 24 25 25 25 25 25 26 26 26 27 27 27 27 27 28 28 28 28 28 28 28 29 29 29 29 30 30
22 22 23 23 24 24 24 24 24 24 25 25 25 26 25 25 25 26 26 27 27 27 28 28 29 28 28 28 28 28 28 28 28 28 29 29 29 30
22 22 22 23 23 24 24 24 25 25 26 26 26 26 26 26 26 27 27 27 28 28 29 28 28 28 28 28 28 28 28 28 28 27 27 28 29 29
23 23 23 23 23 23 24 24 25 25 25 25 25 26 27 27 28 28 28 28 28 28 27 27 27 27 28 27 27 27 27 27 27 26 27 27 27 28
23 23 23 24 24 24 24 24 25 25 25 25 26 26 27 27 28 28 27 27 26 26 26 26 26 26 25 25 26 26 26 26 26 26 26 27 27 28
24 24 24 24 25 25 25 25 26 26 26 26 26 26 27 27 27 27 26 26 25 25 25 25 25 25 25 25 25 25 26 26 26 26 27 27 27 27
24 24 24 25 25 25 25 25 26 26 26 26 26 26 26 26 26 26 26 26 26 25 25 25 25 26 26 26 26 25 25 25 26 26 27 27 27 27
23 24 24 24 24 24 24 25 25 25 26 26 26 26 26 26 26 26 26 26 26 25 25 25 25 25 25 25 25 25 25 25 26 26 27 27 27 27
23 23 23 23 23 24 25 25 25 26 26 26 26 25 25 25 24 25 25 26 25 25 25 24 25 25 25 25 25 25 25 25 25 25 26 27 27 26
Wind_Direction
277 275 275 276 278 280 277 277 278 278 277 277 277 276 277 275 276 275 275 274 273 272 272 270 268 267 265 265 264 262 260 261 259 259 257 257 256 254
282 280 281 282 284 285 284 282 281 280 281 283 283 281 279 276 276 276 276 275 275 274 273 272 271 270 268 267 267 267 263 262 260 259 258 256 255 255
284 281 284 288 290 290 287 283 283 283 283 283 285 285 283 280 278 279 278 278 277 277 275 274 272 271 269 268 268 268 265 264 263 261 260 259 258 257
291 287 286 287 289 288 285 284 285 286 285 285 284 284 283 280 281 279 280 279 279 278 277 275 273 272 271 270 270 269 267 265 263 262 261 260 259 258
298 294 290 288 288 287 287 288 288 288 285 284 284 285 285 283 281 282 282 280 279 279 278 276 274 274 274 272 272 271 269 267 265 263 261 261 261 261
295 295 294 291 289 287 288 289 288 287 286 285 284 285 286 286 284 283 283 282 281 280 278 276 274 275 275 273 272 271 269 268 267 265 263 262 262 262
295 295 293 293 291 289 288 289 289 289 288 288 287 288 289 288 286 285 283 281 280 280 280 278 277 275 273 274 273 272 270 268 267 264 263 263 263 262
295 295 294 292 292 291 292 291 292 291 290 291 290 290 291 291 290 287 284 282 281 282 282 281 280 276 274 274 274 273 272 270 269 267 265 263 263 263
293 292 291 291 290 291 294 295 293 292 291 291 291 292 292 292 291 289 287 285 284 282 282 283 282 280 277 275 276 276 275 272 270 268 266 265 265 264
291 291 290 288 289 291 294 295 294 293 291 291 292 293 293 292 291 290 288 286 285 284 284 284 283 283 282 280 279 278 276 273 271 268 265 265 265 264
289 289 288 288 288 290 292 293 293 293 292 293 293 292 291 291 292 292 289 288 288 288 288 286 285 284 283 281 279 278 277 276 274 271 269 267 266 265
286 287 289 289 289 289 290 291 290 290 291 292 293 293 292 292 293 293 293 291 289 289 289 288 287 285 284 282 281 281 279 277 275 272 271 270 269 268
286 286 287 287 287 287 288 289 289 290 291 291 291 291 291 293 294 294 293 292 291 289 288 287 287 287 286 285 284 283 281 278 276 274 272 271 270 270
289 288 287 286 287 287 287 289 289 290 291 292 292 292 291 292 294 294 293 292 291 289 288 287 287 288 287 287 286 284 282 280 279 277 274 273 272 272
292 291 289 288 287 287 287 288 289 289 290 291 292 294 294 292 292 293 292 291 290 289 289 288 290 291 289 288 286 286 284 282 280 278 276 274 274 274
292 291 290 289 287 287 287 288 289 290 290 291 292 292 293 293 292 293 293 292 290 290 290 290 292 292 291 288 286 285 285 284 283 280 278 277 276 274
291 291 290 290 290 288 287 288 288 289 291 292 292 292 292 293 293 294 295 295 294 293 292 291 291 292 293 291 288 287 286 285 284 282 279 277 276 275
291 291 291 291 291 292 291 290 290 291 293 294 293 293 293 294 294 294 294 295 295 294 293 291 290 291 291 291 290 288 287 285 284 282 280 280 279 277
292 292 293 294 294 293 293 293 292 293 294 295 295 295 295 295 295 296 295 294 295 295 294 293 293 293 292 291 289 288 288 287 286 283 282 281 280 279
292 292 293 294 295 295 295 294 295 295 295 296 296 297 297 297 296 297 296 295 294 295 295 295 294 293 292 292 290 290 290 291 289 286 284 283 283 284
293 293 293 294 295 296 296 296 296 296 296 297 297 298 299 299 298 297 296 296 294 293 294 295 295 294 293 292 292 291 291 290 289 287 286 286 286 286
293 293 293 294 294 296 296 296 296 296 297 297 298 298 299 299 299 298 296 297 295 293 292 294 295 295 294 293 292 292 292 291 290 288 288 288 288 287
292 293 293 294 295 297 298 298 299 299 298 297 297 297 299 299 298 298 299 299 297 294 292 293 294 295 294 293 292 292 292 292 291 290 289 289 289 290